DW8013 Weather Reports


time (UTC)temp
C
wind
direction
speed
KPH
gust
KPH
rain 1hr
cm
rain 24hr
cm
rain mn
cm
humidity
%
barometer
mb
20260507171534 14 5 0.0 0.0 0.00 0.00 0.00 59 1016.4
20260507170037 15 5 0.0 0.0 0.00 0.00 0.00 58 1016.4
20260507164533 15 5 0.0 0.0 0.00 0.00 0.00 60 1016.3
20260507163032 15 5 0.0 0.0 0.00 0.00 0.00 60 1016.3
20260507161539 15 5 0.0 0.0 0.00 0.00 0.00 59 1016.4
20260507160037 15 5 0.0 0.0 0.00 0.00 0.00 59 1016.4
20260507154532 15 5 0.0 0.0 0.00 0.00 0.00 59 1016.4
20260507153035 15 5 0.0 0.0 0.00 0.00 0.00 59 1016.4
20260507151531 14 5 0.0 0.0 0.00 0.00 0.00 62 1016.4
20260507150035 14 5 0.0 0.0 0.00 0.00 0.00 64 1016.4
20260507144531 14 5 0.0 0.0 0.00 0.00 0.00 63 1016.5
20260507143029 14 5 0.0 0.0 0.00 0.00 0.00 63 1016.4
20260507141528 14 5 0.0 0.0 0.00 0.00 0.00 65 1016.5
20260507140031 14 5 0.0 0.0 0.00 0.00 0.00 65 1016.5
20260507134528 14 5 0.0 0.0 0.00 0.00 0.00 64 1016.6
20260507133028 14 5 0.0 0.0 0.00 0.00 0.00 61 1016.5
20260507131528 14 5 0.0 0.0 0.00 0.00 0.00 60 1016.5
20260507130049 15 5 0.0 0.0 0.00 0.00 0.00 59 1016.6
20260507124525 15 5 0.0 0.0 0.00 0.00 0.00 58 1016.6
20260507123025 15 5 0.0 0.0 0.00 0.00 0.00 59 1016.6
20260507121524 15 5 0.0 0.0 0.00 0.00 0.00 58 1016.6
20260507120033 15 5 0.0 0.0 0.00 0.00 0.00 60 1016.6
20260507114522 15 5 0.0 0.0 0.00 0.00 0.00 58 1016.6
20260507113019 15 5 0.0 0.0 0.00 0.00 0.00 60 1016.5
20260507111518 14 5 0.0 0.0 0.00 0.00 0.00 62 1016.6
20260507110016 13 5 0.0 0.0 0.00 0.00 0.00 64 1016.7
20260507104516 13 5 0.0 0.0 0.00 0.00 0.00 64 1016.7
20260507103014 13 5 0.0 0.0 0.00 0.00 0.00 66 1016.8
20260507101514 13 5 0.0 0.0 0.00 0.00 0.00 68 1016.8
20260507100012 13 5 0.0 0.0 0.00 0.00 0.00 67 1016.7
20260507094511 13 5 0.0 0.0 0.00 0.00 0.00 66 1016.6
20260507093010 13 5 0.0 0.0 0.00 0.00 0.00 66 1016.5
20260507091508 13 5 0.0 0.0 0.00 0.00 0.00 66 1016.4
20260507090007 14 5 0.0 0.0 0.00 0.00 0.00 70 1016.2
20260507084503 13 5 0.0 0.0 0.00 0.00 0.00 76 1016.2
20260507083120 13 5 0.0 0.0 0.00 0.00 0.00 78 1016.2
20260507081601 12 5 0.0 0.0 0.00 0.00 0.00 81 1016.2
20260507080053 12 5 0.0 0.0 0.00 0.00 0.00 83 1016.1
20260507074549 11 5 0.0 0.0 0.00 0.00 0.00 85 1016.1
20260507073053 11 5 0.0 0.0 0.00 0.00 0.00 87 1016.0
20260507071541 11 5 0.0 0.0 0.00 0.00 0.00 89 1015.8
20260507070041 10 5 0.0 0.0 0.00 0.00 0.00 89 1015.7
20260507064538 10 5 0.0 0.0 0.00 0.00 0.00 89 1015.7
20260507063033 10 5 0.0 0.0 0.00 0.00 0.00 89 1015.6
20260507061527 10 5 0.0 0.0 0.00 0.00 0.00 89 1015.5
20260507060029 10 5 0.0 0.0 0.00 0.00 0.00 88 1015.4
20260507054525 10 5 0.0 0.0 0.00 0.00 0.00 88 1015.3
20260507053018 10 5 0.0 0.0 0.00 0.00 0.00 88 1015.2
20260507051516 10 5 0.0 0.0 0.00 0.00 0.00 88 1015.0
20260507050017 10 5 0.0 0.0 0.00 0.00 0.00 88 1014.9
20260507044511 10 5 0.0 0.0 0.00 0.00 0.00 88 1014.8
20260507043010 10 5 0.0 0.0 0.00 0.00 0.00 88 1014.8
20260507041522 10 5 0.0 0.0 0.00 0.00 0.00 88 1014.7
20260507040007 10 5 0.0 0.0 0.00 0.00 0.00 88 1014.6
20260507034506 10 5 0.0 0.0 0.00 0.00 0.00 88 1014.5
20260507033006 10 5 0.0 0.0 0.00 0.00 0.00 88 1014.4
20260507031505 10 5 0.0 0.0 0.00 0.00 0.00 88 1014.4
20260507030004 10 5 0.0 0.0 0.00 0.00 0.00 88 1014.3
20260507024503 10 5 0.0 0.0 0.00 0.00 0.00 87 1014.3
20260507023002 10 5 0.0 0.0 0.00 0.00 0.00 87 1014.3
20260507021502 10 5 0.0 0.0 0.00 0.00 0.00 87 1014.3
20260507020001 10 5 0.0 0.0 0.00 0.00 0.00 87 1014.2
20260507014608 10 5 0.0 0.0 0.00 0.00 0.00 87 1014.1
20260507013059 10 5 0.0 0.0 0.00 0.00 0.00 87 1014.1
20260507011602 10 5 0.0 0.0 0.00 0.00 0.00 88 1014.0
20260507010057 10 5 0.0 0.0 0.00 0.00 0.00 88 1014.0
20260507004556 10 5 0.0 0.0 0.00 0.00 0.00 87 1014.0
20260507003055 9 5 0.0 0.0 0.00 0.00 0.00 87 1014.0
20260507001557 9 5 0.0 0.0 0.00 0.00 0.00 87 1014.1
20260507000055 9 5 0.0 0.0 0.00 0.00 0.00 87 1014.0
20260506234600 9 5 0.0 0.0 0.00 0.00 0.00 88 1014.0
20260506233052 9 5 0.0 0.0 0.00 0.00 0.00 87 1014.0
20260506231556 8 5 0.0 0.0 0.00 0.00 0.00 87 1013.8
20260506230055 8 5 0.0 0.0 0.00 0.00 0.00 87 1013.8
20260506224546 8 5 0.0 0.0 0.00 0.00 0.00 86 1013.7
20260506223052 8 5 0.0 0.0 0.00 0.00 0.00 86 1013.6
20260506221543 8 5 0.0 0.0 0.00 0.00 0.00 85 1013.6
20260506220042 8 5 0.0 0.0 0.00 0.00 0.00 85 1013.5
20260506214541 8 5 0.0 0.0 0.00 0.00 0.00 85 1013.5
20260506213100 8 5 0.0 0.0 0.00 0.00 0.00 85 1013.5
20260506211549 8 5 0.0 0.0 0.00 0.00 0.00 84 1013.4
20260506210038 8 5 0.0 0.0 0.00 0.00 0.00 84 1013.3
20260506204545 9 5 0.0 0.0 0.00 0.00 0.00 83 1013.3
20260506203038 9 5 0.0 0.0 0.00 0.00 0.00 82 1013.3
20260506201550 9 5 0.0 0.0 0.00 0.00 0.00 81 1013.2
20260506200034 10 5 0.0 0.0 0.00 0.00 0.00 80 1013.0
20260506194532 10 5 0.0 0.0 0.00 0.00 0.00 79 1012.9
20260506193031 10 5 0.0 0.0 0.00 0.00 0.00 77 1012.8
20260506191533 11 5 0.0 0.0 0.00 0.00 0.00 76 1012.6
20260506190028 11 5 0.0 0.0 0.00 0.00 0.00 73 1012.4
20260506184527 12 5 0.0 0.0 0.00 0.00 0.00 71 1012.3
20260506183032 12 5 0.0 0.0 0.00 0.00 0.00 70 1012.4
20260506181524 13 5 0.0 0.0 0.00 0.00 0.00 68 1012.1
20260506180022 13 5 0.0 0.0 0.00 0.00 0.00 68 1012.0
20260506174520 13 5 0.0 0.0 0.00 0.00 0.00 69 1011.7
20260506173019 13 5 0.0 0.0 0.00 0.00 0.00 70 1011.5